| time (UTC) | temp C | wind direction | speed KPH | gust KPH | rain 1hr cm | rain 24hr cm | rain mn cm | humidity % | barometer mb |
| 20260901141004 | 20 | 250 | 29.0 | 29.0 | 0.00 | 0.00 | 0.00 | 52 | 1017.9 |
| 20260901134504 | 21 | 240 | 24.1 | 24.1 | 0.00 | 0.00 | 0.00 | 46 | 1017.9 |
| 20260901124004 | 21 | 240 | 24.1 | 24.1 | 0.00 | 0.00 | 0.00 | 49 | 1019.0 |
| 20260901123004 | 21 | 240 | 24.1 | 24.1 | 0.00 | 0.00 | 0.00 | 49 | 1019.0 |
| 20260901122004 | 21 | 240 | 24.1 | 24.1 | 0.00 | 0.00 | 0.00 | 49 | 1019.0 |
| 20260901121504 | 21 | 240 | 24.1 | 24.1 | 0.00 | 0.00 | 0.00 | 49 | 1019.0 |
| 20260901121004 | 21 | 240 | 24.1 | 24.1 | 0.00 | 0.00 | 0.00 | 49 | 1019.0 |
| 20260901120004 | 21 | 240 | 24.1 | 24.1 | 0.00 | 0.00 | 0.00 | 49 | 1019.0 |
| 20260901115504 | 18 | 240 | 22.5 | 22.5 | 0.00 | 0.00 | 0.00 | 52 | 1019.0 |
| 20260901114003 | 18 | 240 | 22.5 | 22.5 | 0.00 | 0.00 | 0.00 | 52 | 1019.0 |
| 20260901113504 | 18 | 240 | 22.5 | 22.5 | 0.00 | 0.00 | 0.00 | 52 | 1019.0 |
| 20260901113004 | 18 | 240 | 22.5 | 22.5 | 0.00 | 0.00 | 0.00 | 52 | 1019.0 |
| 20260901112503 | 18 | 240 | 22.5 | 22.5 | 0.00 | 0.00 | 0.00 | 52 | 1019.0 |
| 20260901112004 | 18 | 240 | 22.5 | 22.5 | 0.00 | 0.00 | 0.00 | 52 | 1019.0 |
| 20260901111504 | 18 | 240 | 22.5 | 22.5 | 0.00 | 0.00 | 0.00 | 52 | 1019.0 |
| 20260901110004 | 18 | 240 | 22.5 | 22.5 | 0.00 | 0.00 | 0.00 | 52 | 1019.0 |
| 20260901105004 | 17 | 240 | 22.5 | 22.5 | 0.00 | 0.00 | 0.00 | 63 | 1019.0 |
| 20260901102004 | 17 | 240 | 22.5 | 22.5 | 0.00 | 0.00 | 0.00 | 63 | 1019.0 |
| 20260901101504 | 17 | 240 | 22.5 | 22.5 | 0.00 | 0.00 | 0.00 | 63 | 1019.0 |
| 20260901100504 | 17 | 240 | 22.5 | 22.5 | 0.00 | 0.00 | 0.00 | 63 | 1019.0 |
| 20260901100003 | 17 | 240 | 22.5 | 22.5 | 0.00 | 0.00 | 0.00 | 63 | 1019.0 |
| 20260901095005 | 17 | 230 | 16.1 | 16.1 | 0.00 | 0.00 | 0.00 | 67 | 1019.0 |
| 20260901094003 | 17 | 230 | 16.1 | 16.1 | 0.00 | 0.00 | 0.00 | 67 | 1019.0 |
| 20260901091004 | 17 | 230 | 16.1 | 16.1 | 0.00 | 0.00 | 0.00 | 67 | 1019.0 |
| 20260901090004 | 17 | 230 | 16.1 | 16.1 | 0.00 | 0.00 | 0.00 | 67 | 1019.0 |
| 20260901085504 | 15 | 240 | 16.1 | 16.1 | 0.00 | 0.00 | 0.00 | 76 | 1019.0 |
| 20260901084004 | 15 | 240 | 16.1 | 16.1 | 0.00 | 0.00 | 0.00 | 76 | 1019.0 |
| 20260901081004 | 15 | 240 | 16.1 | 16.1 | 0.00 | 0.00 | 0.00 | 76 | 1019.0 |
| 20260901080504 | 15 | 240 | 16.1 | 16.1 | 0.00 | 0.00 | 0.00 | 76 | 1019.0 |
| 20260901080003 | 15 | 240 | 16.1 | 16.1 | 0.00 | 0.00 | 0.00 | 76 | 1019.0 |
| 20260901074004 | 12 | 230 | 14.5 | 14.5 | 0.00 | 0.00 | 0.00 | 87 | 1019.0 |
| 20260901073004 | 12 | 230 | 14.5 | 14.5 | 0.00 | 0.00 | 0.00 | 87 | 1019.0 |
| 20260901072004 | 12 | 230 | 14.5 | 14.5 | 0.00 | 0.00 | 0.00 | 87 | 1019.0 |
| 20260901071005 | 12 | 230 | 14.5 | 14.5 | 0.00 | 0.00 | 0.00 | 87 | 1019.0 |
| 20260901070504 | 12 | 230 | 14.5 | 14.5 | 0.00 | 0.00 | 0.00 | 87 | 1019.0 |
| 20260901070004 | 12 | 230 | 14.5 | 14.5 | 0.00 | 0.00 | 0.00 | 87 | 1019.0 |
| 20260901065504 | 13 | 260 | 14.5 | 14.5 | 0.00 | 0.00 | 0.00 | 76 | 1016.9 |
| 20260901065004 | 13 | 260 | 14.5 | 14.5 | 0.00 | 0.00 | 0.00 | 76 | 1016.9 |
| 20260901063504 | 13 | 260 | 14.5 | 14.5 | 0.00 | 0.00 | 0.00 | 76 | 1016.9 |
| 20260901062504 | 13 | 260 | 14.5 | 14.5 | 0.00 | 0.00 | 0.00 | 76 | 1016.9 |
| 20260901062004 | 13 | 260 | 14.5 | 14.5 | 0.00 | 0.00 | 0.00 | 76 | 1016.9 |
| 20260901061504 | 13 | 260 | 14.5 | 14.5 | 0.00 | 0.00 | 0.00 | 76 | 1016.9 |
| 20260901061004 | 13 | 260 | 14.5 | 14.5 | 0.00 | 0.00 | 0.00 | 76 | 1016.9 |
| 20260901060504 | 13 | 260 | 14.5 | 14.5 | 0.00 | 0.00 | 0.00 | 76 | 1016.9 |
| 20260831210504 | 13 | 260 | 14.5 | 19.3 | 0.00 | 0.00 | 0.00 | 76 | 1016.9 |
| 20260831205504 | 15 | 270 | 19.3 | 19.3 | 0.00 | 0.00 | 0.00 | 76 | 1016.9 |
| 20260831202504 | 15 | 270 | 19.3 | 19.3 | 0.00 | 0.00 | 0.00 | 76 | 1016.9 |
| 20260831201503 | 15 | 270 | 19.3 | 19.3 | 0.00 | 0.00 | 0.00 | 76 | 1016.9 |
| 20260831200004 | 15 | 270 | 19.3 | 20.9 | 0.00 | 0.00 | 0.00 | 76 | 1016.9 |
| 20260831195004 | 15 | 270 | 20.9 | 20.9 | 0.00 | 0.00 | 0.00 | 72 | 1015.9 |
| 20260831194004 | 15 | 270 | 20.9 | 20.9 | 0.00 | 0.00 | 0.00 | 72 | 1015.9 |
| 20260831193504 | 15 | 270 | 20.9 | 20.9 | 0.00 | 0.00 | 0.00 | 72 | 1015.9 |
| 20260831193004 | 15 | 270 | 20.9 | 20.9 | 0.00 | 0.00 | 0.00 | 72 | 1015.9 |
| 20260831191504 | 15 | 270 | 20.9 | 20.9 | 0.00 | 0.00 | 0.00 | 72 | 1015.9 |
| 20260831191004 | 15 | 270 | 20.9 | 20.9 | 0.00 | 0.00 | 0.00 | 72 | 1015.9 |
| 20260831185504 | 17 | 290 | 20.9 | 20.9 | 0.00 | 0.00 | 0.00 | 67 | 1014.9 |
| 20260831185004 | 17 | 290 | 20.9 | 20.9 | 0.00 | 0.00 | 0.00 | 67 | 1014.9 |
| 20260831180504 | 17 | 290 | 20.9 | 25.7 | 0.00 | 0.00 | 0.00 | 67 | 1014.9 |
| 20260831175004 | 17 | 280 | 25.7 | 25.7 | 0.00 | 0.00 | 0.00 | 67 | 1013.9 |
| 20260831173504 | 17 | 280 | 25.7 | 25.7 | 0.00 | 0.00 | 0.00 | 67 | 1013.9 |
| 20260831173004 | 17 | 280 | 25.7 | 25.7 | 0.00 | 0.00 | 0.00 | 67 | 1013.9 |
| 20260831172503 | 17 | 280 | 25.7 | 25.7 | 0.00 | 0.00 | 0.00 | 67 | 1013.9 |
| 20260831164004 | 20 | 290 | 25.7 | 25.7 | 0.00 | 0.00 | 0.00 | 59 | 1012.9 |
| 20260831163504 | 20 | 290 | 25.7 | 25.7 | 0.00 | 0.00 | 0.00 | 59 | 1012.9 |
| 20260831162504 | 20 | 290 | 25.7 | 25.7 | 0.00 | 0.00 | 0.00 | 59 | 1012.9 |
| 20260831161504 | 20 | 290 | 25.7 | 25.7 | 0.00 | 0.00 | 0.00 | 59 | 1012.9 |
| 20260831160505 | 20 | 290 | 25.7 | 25.7 | 0.00 | 0.00 | 0.00 | 59 | 1012.9 |
| 20260831154503 | 21 | 300 | 24.1 | 24.1 | 0.00 | 0.00 | 0.00 | 60 | 1012.9 |
| 20260831153003 | 21 | 300 | 24.1 | 24.1 | 0.00 | 0.00 | 0.00 | 60 | 1012.9 |
| 20260831151503 | 21 | 300 | 24.1 | 24.1 | 0.00 | 0.00 | 0.00 | 60 | 1012.9 |
| 20260831150505 | 21 | 300 | 24.1 | 29.0 | 0.00 | 0.00 | 0.00 | 60 | 1012.9 |
| 20260831145004 | 20 | 280 | 29.0 | 29.0 | 0.00 | 0.00 | 0.00 | 68 | 1011.9 |
| 20260831144504 | 20 | 280 | 29.0 | 29.0 | 0.00 | 0.00 | 0.00 | 68 | 1011.9 |
| 20260831144004 | 20 | 280 | 29.0 | 29.0 | 0.00 | 0.00 | 0.00 | 68 | 1011.9 |
| 20260831143504 | 20 | 280 | 29.0 | 29.0 | 0.00 | 0.00 | 0.00 | 68 | 1011.9 |
| 20260831142004 | 20 | 280 | 29.0 | 29.0 | 0.00 | 0.00 | 0.00 | 68 | 1011.9 |
| 20260831141504 | 20 | 280 | 29.0 | 29.0 | 0.00 | 0.00 | 0.00 | 68 | 1011.9 |